EW5797 Weather Reports


Display with metric or nautical units.
time (UTC)temp
F
wind
direction
speed
MPH
gust
MPH
rain 1hr
in
rain 24hr
in
rain mn
in
humidity
%
barometer
mb
20260906075703 69 322 0.0 1.0 0.00 0.01 0.00 94 1014.5
20260906075204 69 282 0.0 2.0 0.00 0.01 0.00 94 1014.5
20260906074203 69 305 0.0 1.0 0.00 0.01 0.00 93 1014.6
20260906073703 70 310 1.0 1.0 0.00 0.01 0.00 93 1014.6
20260906073203 70 325 0.0 2.0 0.00 0.01 0.00 93 1014.7
20260906072704 70 326 0.0 1.0 0.00 0.01 0.00 93 1014.7
20260906072204 70 309 0.0 1.0 0.00 0.01 0.00 93 1014.7
20260906071204 70 24 0.0 1.0 0.00 0.01 0.00 93 1014.9
20260906070704 70 317 0.0 1.0 0.00 0.01 0.00 93 1014.9
20260906070203 70 128 0.0 1.0 0.00 0.01 0.00 93 1014.7
20260906065704 70 24 0.0 2.0 0.00 0.01 0.00 93 1014.7
20260906065203 70 328 1.0 2.0 0.00 0.01 0.00 93 1014.8
20260906064703 70 313 1.0 2.0 0.00 0.01 0.00 93 1014.7
20260906063703 70 150 1.0 2.0 0.00 0.01 0.00 93 1014.8
20260906063203 70 130 1.0 2.0 0.00 0.01 0.00 93 1014.7
20260906062704 70 160 0.0 1.0 0.00 0.01 0.00 93 1014.9
20260906062203 70 203 0.0 2.0 0.00 0.01 0.00 93 1015.0
20260906061703 70 298 1.0 2.0 0.00 0.01 0.00 93 1015.0
20260906060703 70 205 1.0 2.0 0.00 0.01 0.00 93 1015.1
20260906060204 70 204 0.0 1.0 0.00 0.01 0.00 93 1015.2
20260906055704 70 326 1.0 2.0 0.00 0.01 0.00 93 1015.1
20260906055204 70 130 0.0 1.0 0.00 0.01 0.00 93 1015.2
20260906054703 70 1 1.0 2.0 0.00 0.01 0.00 92 1015.4
20260906054203 70 35 1.0 2.0 0.00 0.01 0.00 92 1015.4
20260906053703 70 309 1.0 2.0 0.00 0.01 0.00 92 1015.3
20260906053204 71 30 0.0 2.0 0.00 0.01 0.00 92 1015.3
20260906052704 71 203 1.0 2.0 0.00 0.01 0.00 92 1015.4
20260906051203 71 291 0.0 1.0 0.00 0.01 0.00 92 1015.5
20260906050704 71 69 0.0 1.0 0.00 0.01 0.00 92 1015.7
20260906045704 71 290 0.0 1.0 0.00 0.01 0.00 92 1015.7
20260906045203 71 334 1.0 2.0 0.00 0.01 0.00 92 1015.7
20260906044703 71 200 1.0 2.0 0.00 0.01 0.00 92 1015.7
20260906044203 71 233 0.0 2.0 0.00 0.01 0.00 92 1015.6
20260906043703 71 263 1.0 2.0 0.00 0.01 0.00 92 1015.5
20260906043203 71 233 0.0 2.0 0.00 0.01 0.00 91 1015.4
20260906042704 72 182 1.0 1.0 0.00 0.01 0.00 91 1015.3
20260906042203 72 163 1.0 2.0 0.00 0.01 0.00 91 1015.3
20260906041703 72 221 0.0 2.0 0.00 0.01 0.00 91 1015.3
20260906041204 72 312 0.0 2.0 0.00 0.01 0.00 91 1015.3
20260906040704 72 197 0.0 1.0 0.00 0.01 0.00 91 1015.4
20260906040203 72 63 0.0 2.0 0.00 0.01 0.00 91 1015.5
20260906035704 72 43 1.0 2.0 0.00 0.01 0.01 91 1015.5
20260906035204 72 224 1.0 2.0 0.00 0.01 0.01 90 1015.4
20260906034203 72 130 1.0 1.0 0.00 0.01 0.01 90 1015.4
20260906033704 73 291 0.0 1.0 0.00 0.01 0.01 90 1015.5
20260906033204 73 255 0.0 2.0 0.00 0.01 0.01 90 1015.7
20260906032704 73 202 1.0 3.0 0.00 0.01 0.01 90 1015.7
20260906031204 73 30 0.0 1.0 0.00 0.01 0.01 89 1015.9
20260906030703 73 196 1.0 2.0 0.00 0.01 0.01 89 1015.7
20260906025703 73 219 0.0 1.0 0.00 0.01 0.01 89 1015.6
20260906025204 74 246 0.0 1.0 0.00 0.01 0.01 89 1015.6
20260906024704 74 111 1.0 2.0 0.00 0.01 0.01 89 1015.5
20260906024203 74 335 0.0 1.0 0.00 0.01 0.01 88 1015.6
20260906023704 74 176 1.0 2.0 0.00 0.01 0.01 88 1015.7
20260906023204 74 183 0.0 1.0 0.00 0.01 0.01 88 1015.8
20260906022203 74 269 0.0 2.0 0.00 0.01 0.01 87 1015.6
20260906021704 74 308 0.0 1.0 0.00 0.01 0.01 87 1015.5
20260906020703 75 259 0.0 1.0 0.00 0.01 0.01 87 1015.6
20260906020203 75 1 0.0 1.0 0.00 0.01 0.01 87 1015.6
20260906015704 75 43 1.0 2.0 0.00 0.01 0.01 86 1015.6
20260906015203 75 339 0.0 1.0 0.00 0.01 0.01 85 1015.5
20260906014703 76 307 1.0 1.0 0.00 0.01 0.01 86 1015.3
20260906014203 76 31 0.0 2.0 0.00 0.01 0.01 86 1015.3
20260906013703 76 154 0.0 2.0 0.00 0.01 0.01 85 1015.2
20260906013203 76 321 0.0 2.0 0.00 0.01 0.01 85 1015.2
20260906012704 76 133 0.0 1.0 0.00 0.01 0.01 84 1015.2
20260906012204 76 292 0.0 1.0 0.00 0.01 0.01 84 1015.2
20260906010703 77 179 0.0 1.0 0.00 0.01 0.01 82 1015.2
20260906005703 78 261 1.0 2.0 0.00 0.01 0.01 82 1015.0
20260906005204 78 303 0.0 1.0 0.00 0.01 0.01 80 1014.8
20260906004703 78 258 0.0 1.0 0.00 0.01 0.01 80 1014.9
20260906004204 79 292 0.0 1.0 0.00 0.01 0.01 80 1014.9
20260906003704 79 51 0.0 1.0 0.00 0.01 0.01 79 1014.8
20260906003203 80 285 0.0 1.0 0.00 0.01 0.01 78 1014.8
20260906002703 80 40 0.0 1.0 0.00 0.01 0.01 77 1014.7
20260906002203 81 289 0.0 1.0 0.00 0.01 0.01 76 1014.7
20260906001704 81 309 0.0 1.0 0.00 0.01 0.01 76 1014.6
20260906000703 82 255 0.0 1.0 0.00 0.01 0.01 74 1014.7
20260906000204 83 58 0.0 1.0 0.00 0.01 0.01 73 1014.6
20260905235704 83 133 1.0 2.0 0.00 0.01 0.01 73 1014.6
20260905235204 84 170 1.0 2.0 0.00 0.01 0.01 72 1014.5
20260905234703 84 260 0.0 2.0 0.00 0.01 0.01 71 1014.5
20260905234204 84 178 0.0 1.0 0.00 0.01 0.01 70 1014.5
20260905233704 85 278 0.0 1.0 0.00 0.01 0.01 69 1014.5
20260905233203 85 305 1.0 2.0 0.00 0.01 0.01 69 1014.5
20260905232204 85 247 2.0 3.0 0.00 0.01 0.01 67 1014.4
20260905231704 86 265 1.0 2.0 0.00 0.01 0.01 66 1014.4
20260905231203 86 293 1.0 2.0 0.00 0.01 0.01 66 1014.4
20260905230703 86 282 2.0 3.0 0.00 0.01 0.01 65 1014.5
20260905230203 86 215 2.0 3.0 0.00 0.02 0.01 65 1014.6
20260905225704 87 199 1.0 3.0 0.00 0.10 0.01 64 1014.8
20260905225203 87 263 2.0 3.0 0.00 0.22 0.01 64 1014.8
20260905224703 87 297 2.0 3.0 0.00 0.24 0.01 64 1014.7
20260905224203 87 308 1.0 3.0 0.00 0.24 0.01 63 1014.8
20260905223703 87 207 1.0 3.0 0.00 0.24 0.01 63 1014.8
20260905223203 87 205 2.0 3.0 0.00 0.24 0.01 63 1015.0
20260905222703 87 301 2.0 3.0 0.00 0.24 0.01 63 1015.0
20260905222204 87 301 2.0 5.0 0.00 0.24 0.01 62 1015.0
20260905221703 88 279 2.0 6.0 0.00 0.24 0.01 62 1015.1
20260905221203 88 278 2.0 3.0 0.00 0.24 0.01 62 1015.0
20260905220203 88 279 3.0 8.0 0.00 0.24 0.01 61 1015.0
20260905215703 88 255 2.0 8.0 0.00 0.24 0.01 61 1015.0
20260905215204 88 201 2.0 5.0 0.00 0.24 0.01 62 1015.0
20260905214703 88 227 2.0 8.0 0.00 0.24 0.01 62 1014.9
20260905214203 88 197 2.0 6.0 0.00 0.24 0.01 64 1014.8
20260905213203 88 111 1.0 6.0 0.00 0.24 0.01 62 1014.8
20260905212704 88 195 4.0 7.0 0.00 0.24 0.01 62 1014.8
20260905212203 87 281 3.0 6.0 0.00 0.24 0.01 63 1014.7
20260905211703 87 194 3.0 7.0 0.00 0.24 0.01 63 1014.6
20260905211203 87 258 3.0 7.0 0.00 0.24 0.01 63 1014.7
20260905210703 87 235 2.0 10.0 0.00 0.24 0.01 62 1014.8
20260905210203 87 205 2.0 8.0 0.00 0.24 0.01 64 1014.8
20260905205703 87 184 5.0 8.0 0.00 0.24 0.01 64 1014.8
20260905205203 87 276 5.0 8.0 0.00 0.24 0.01 64 1014.7
20260905204704 87 221 3.0 6.0 0.00 0.24 0.01 64 1014.9
20260905204203 87 180 2.0 7.0 0.00 0.24 0.01 64 1014.8
20260905203703 87 16 3.0 7.0 0.00 0.24 0.01 64 1014.9
20260905203204 86 285 4.0 7.0 0.00 0.24 0.01 64 1014.9
20260905202204 86 265 3.0 7.0 0.00 0.24 0.01 67 1015.0
20260905201704 85 336 2.0 3.0 0.00 0.24 0.01 68 1015.0
20260905201203 85 353 2.0 6.0 0.00 0.24 0.01 67 1015.1
20260905200204 85 339 2.0 6.0 0.00 0.24 0.01 65 1015.1
20260905195703 84 266 3.0 7.0 0.00 0.24 0.01 67 1015.1
20260905195203 84 273 2.0 7.0 0.00 0.24 0.01 68 1015.1
20260905194703 84 201 3.0 7.0 0.00 0.24 0.01 68 1015.2
20260905194203 83 198 4.0 8.0 0.00 0.24 0.01 69 1015.2
20260905193704 83 300 3.0 8.0 0.00 0.24 0.01 68 1015.4
20260905193203 83 201 3.0 7.0 0.00 0.24 0.01 68 1015.4
20260905192204 82 46 2.0 7.0 0.00 0.24 0.01 69 1015.6
20260905191704 83 35 2.0 5.0 0.00 0.24 0.01 69 1015.7
20260905191203 82 237 2.0 6.0 0.00 0.24 0.01 71 1015.7
20260905190703 82 300 2.0 5.0 0.00 0.24 0.01 72 1015.8
20260905190202 81 196 2.0 3.0 0.00 0.24 0.01 72 1015.9
20260905185202 80 309 1.0 6.0 0.00 0.24 0.01 78 1016.0
20260905184703 79 33 2.0 5.0 0.00 0.24 0.01 76 1016.2
20260905184202 79 321 1.0 3.0 0.00 0.24 0.01 75 1016.2
20260905183702 78 190 2.0 7.0 0.00 0.24 0.01 76 1016.4
20260905182703 77 113 2.0 5.0 0.00 0.24 0.01 81 1016.7
20260905182202 76 192 2.0 5.0 0.00 0.24 0.01 85 1016.8
20260905181703 76 173 2.0 8.0 0.00 0.24 0.01 87 1016.8
20260905180703 74 219 2.0 6.0 0.00 0.24 0.01 90 1017.1
20260905175703 73 189 2.0 3.0 0.00 0.24 0.01 90 1017.5
20260905175203 73 201 1.0 3.0 0.00 0.24 0.01 90 1017.6
20260905174702 73 219 1.0 2.0 0.00 0.24 0.01 90 1017.7
20260905174202 73 254 1.0 3.0 0.00 0.24 0.01 89 1018.1
20260905173703 73 175 1.0 3.0 0.00 0.24 0.01 89 1018.2
20260905173202 73 197 1.0 2.0 0.00 0.24 0.01 89 1018.1
20260905172202 73 222 1.0 2.0 0.00 0.24 0.01 88 1018.4
20260905171703 73 62 1.0 3.0 0.01 0.24 0.01 87 1018.4
20260905171202 73 173 1.0 3.0 0.01 0.24 0.01 86 1018.4
20260905170702 74 127 1.0 3.0 0.01 0.24 0.01 85 1018.3
20260905170202 74 90 1.0 3.0 0.01 0.24 0.01 84 1018.3
20260905165703 74 144 1.0 3.0 0.01 0.24 0.01 83 1018.2
20260905165203 75 159 2.0 3.0 0.01 0.24 0.01 83 1018.0
20260905164702 75 222 1.0 2.0 0.01 0.24 0.01 82 1018.1
20260905163702 76 70 2.0 3.0 0.01 0.24 0.01 80 1018.3
20260905163203 76 41 1.0 3.0 0.01 0.24 0.01 79 1018.6
20260905162703 77 81 1.0 3.0 0.01 0.24 0.01 78 1018.5
20260905161702 78 6 5.0 12.0 0.00 0.23 0.00 73 1018.5
20260905161202 79 16 7.0 17.0 0.00 0.23 0.00 73 1018.2
20260905160702 80 22 5.0 14.0 0.00 0.23 0.00 77 1018.1
20260905160203 81 26 8.0 17.0 0.00 0.23 0.00 77 1017.9
20260905155702 82 13 5.0 12.0 0.00 0.23 0.00 79 1018.0
20260905155203 83 342 2.0 3.0 0.00 0.23 0.00 78 1017.5
20260905154702 83 359 2.0 3.0 0.00 0.23 0.00 77 1017.4
20260905153703 84 0 1.0 2.0 0.00 0.23 0.00 76 1017.7
20260905153202 84 33 1.0 2.0 0.00 0.23 0.00 73 1017.7
20260905152702 84 12 1.0 3.0 0.00 0.23 0.00 74 1017.7
20260905152202 84 31 1.0 3.0 0.00 0.23 0.00 76 1017.7
20260905151702 84 203 2.0 3.0 0.00 0.23 0.00 76 1017.6
20260905150702 83 225 2.0 3.0 0.00 0.23 0.00 78 1017.4
20260905145703 83 51 1.0 3.0 0.00 0.23 0.00 78 1017.4
20260905144703 83 56 2.0 3.0 0.00 0.23 0.00 78 1017.2
20260905144202 83 323 2.0 3.0 0.00 0.23 0.00 79 1017.2
20260905143703 82 257 1.0 3.0 0.00 0.23 0.00 80 1017.2
20260905143203 82 150 2.0 3.0 0.00 0.23 0.00 82 1017.1
20260905141702 80 132 1.0 3.0 0.00 0.23 0.00 84 1017.3
20260905141202 79 40 2.0 3.0 0.00 0.23 0.00 86 1017.3
20260905140702 78 174 1.0 2.0 0.00 0.23 0.00 88 1017.3
20260905140202 78 36 1.0 3.0 0.00 0.23 0.00 90 1017.5
20260905135703 77 187 1.0 3.0 0.00 0.23 0.00 90 1017.5
20260905135202 76 57 2.0 3.0 0.00 0.23 0.00 92 1017.5
20260905134703 76 289 2.0 3.0 0.00 0.23 0.00 94 1017.5
20260905134203 76 40 1.0 3.0 0.00 0.23 0.00 94 1017.4
20260905133702 75 20 1.0 3.0 0.00 0.23 0.00 94 1017.4
20260905133203 75 358 1.0 3.0 0.00 0.23 0.00 95 1017.4
20260905132702 74 40 1.0 2.0 0.00 0.23 0.00 95 1017.4
20260905131202 73 137 1.0 3.0 0.00 0.23 0.00 95 1017.5
20260905130703 73 225 1.0 3.0 0.00 0.23 0.00 95 1017.6
20260905125703 72 106 1.0 3.0 0.00 0.23 0.00 95 1017.7
20260905125203 72 42 1.0 3.0 0.00 0.23 0.00 95 1017.7
20260905124702 71 355 1.0 2.0 0.00 0.23 0.00 95 1017.8
20260905124202 71 40 1.0 2.0 0.00 0.23 0.00 95 1017.7
20260905123703 71 14 0.0 3.0 0.00 0.23 0.00 95 1017.8
20260905123202 71 116 1.0 2.0 0.00 0.23 0.00 95 1017.8
20260905122703 70 98 1.0 2.0 0.00 0.23 0.00 95 1017.7
20260905122202 70 92 1.0 2.0 0.00 0.23 0.00 95 1017.6
20260905121703 70 210 1.0 3.0 0.00 0.23 0.00 95 1017.6
20260905121203 70 193 1.0 3.0 0.00 0.23 0.00 95 1017.5
20260905120702 70 66 0.0 2.0 0.00 0.23 0.00 95 1017.6
20260905120203 69 298 0.0 2.0 0.00 0.23 0.00 95 1017.6
20260905115702 69 23 1.0 1.0 0.00 0.23 0.00 95 1017.5
20260905115202 69 284 1.0 3.0 0.00 0.23 0.00 95 1017.4
20260905114703 69 248 1.0 2.0 0.00 0.23 0.00 95 1017.3
20260905114202 69 86 0.0 2.0 0.00 0.23 0.00 95 1017.4
20260905113703 69 163 1.0 2.0 0.00 0.23 0.00 94 1017.3
20260905112702 68 167 0.0 1.0 0.00 0.23 0.00 94 1017.3
20260905112203 69 299 0.0 1.0 0.00 0.23 0.00 94 1017.3
20260905111202 69 323 1.0 1.0 0.00 0.23 0.00 94 1017.3
20260905110703 69 322 1.0 1.0 0.00 0.23 0.00 94 1017.2
20260905110203 69 353 0.0 1.0 0.00 0.23 0.00 94 1017.1
20260905105203 69 345 1.0 1.0 0.00 0.23 0.00 94 1016.9
20260905104203 69 318 0.0 1.0 0.00 0.23 0.00 94 1016.8
20260905102703 69 258 0.0 1.0 0.00 0.23 0.00 94 1016.7
20260905101702 69 115 0.0 1.0 0.00 0.23 0.00 94 1016.7
20260905101203 69 239 1.0 2.0 0.00 0.23 0.00 94 1016.6
20260905100202 69 301 0.0 1.0 0.00 0.23 0.00 94 1016.6
20260905095703 69 354 0.0 1.0 0.00 0.23 0.00 94 1016.6
20260905095203 69 3 0.0 1.0 0.00 0.23 0.00 94 1016.6
20260905094703 69 313 1.0 2.0 0.00 0.23 0.00 94 1016.6
20260905094203 69 319 1.0 2.0 0.00 0.23 0.00 94 1016.6
20260905093702 69 182 0.0 1.0 0.00 0.23 0.00 94 1016.5
20260905093203 69 26 1.0 2.0 0.00 0.23 0.00 94 1016.5
20260905092202 70 180 0.0 1.0 0.00 0.23 0.00 94 1016.3
20260905091703 70 317 0.0 1.0 0.00 0.23 0.00 94 1016.3
20260905091203 70 215 1.0 1.0 0.00 0.23 0.00 94 1016.3
20260905090702 70 292 0.0 1.0 0.00 0.23 0.00 94 1016.4
20260905090203 70 206 0.0 1.0 0.00 0.23 0.00 94 1016.3
20260905085703 70 161 0.0 1.0 0.00 0.23 0.00 94 1016.4
20260905085203 70 315 0.0 1.0 0.00 0.23 0.00 94 1016.4
20260905084703 70 261 0.0 1.0 0.00 0.23 0.00 94 1016.4
20260905084202 70 325 0.0 1.0 0.00 0.23 0.00 94 1016.4
20260905083702 70 50 1.0 2.0 0.00 0.23 0.00 94 1016.5
20260905083203 70 238 0.0 1.0 0.00 0.23 0.00 94 1016.5
20260905082702 70 34 0.0 2.0 0.00 0.23 0.00 94 1016.5
20260905082203 70 351 0.0 2.0 0.00 0.23 0.00 94 1016.5
20260905081702 70 325 0.0 1.0 0.00 0.23 0.00 94 1016.5
20260905081203 70 51 0.0 1.0 0.00 0.23 0.00 94 1016.7
20260905080203 70 10 1.0 2.0 0.00 0.23 0.00 94 1016.7